Year,Month,Day,Hour,Minute,Value (Times are PST for temperature in C)
2005,07,21,00,00,13.50
2005,07,21,00,01,13.40
2005,07,21,00,02,13.40
2005,07,21,00,03,13.40
2005,07,21,00,04,13.40
2005,07,21,00,05,13.40
2005,07,21,00,06,13.40
2005,07,21,00,07,13.40
2005,07,21,00,08,13.30
2005,07,21,00,09,13.30
2005,07,21,00,10,13.30
2005,07,21,00,11,13.30
2005,07,21,00,12,13.30
2005,07,21,00,13,13.30
2005,07,21,00,14,13.30
2005,07,21,00,15,13.30
2005,07,21,00,16,13.30
2005,07,21,00,17,13.40
2005,07,21,00,18,13.40
2005,07,21,00,19,13.40
2005,07,21,00,20,13.40
2005,07,21,00,21,13.40
2005,07,21,00,22,13.40
2005,07,21,00,23,13.40
2005,07,21,00,24,13.40
2005,07,21,00,25,13.40
2005,07,21,00,26,13.40
2005,07,21,00,27,13.40
2005,07,21,00,28,13.40
2005,07,21,00,29,13.30
2005,07,21,00,30,13.30
2005,07,21,00,31,13.30
2005,07,21,00,32,13.30
2005,07,21,00,33,13.30
2005,07,21,00,34,13.30
2005,07,21,00,35,13.30
2005,07,21,00,36,13.30
2005,07,21,00,37,13.30
2005,07,21,00,38,13.30
2005,07,21,00,39,13.30
2005,07,21,00,40,13.30
2005,07,21,00,41,13.30
2005,07,21,00,42,13.30
2005,07,21,00,43,13.30
2005,07,21,00,44,13.30
2005,07,21,00,45,13.20
2005,07,21,00,46,13.20
2005,07,21,00,47,13.20
2005,07,21,00,48,13.20
2005,07,21,00,49,13.20
2005,07,21,00,50,13.20
2005,07,21,00,51,13.20
2005,07,21,00,52,13.20
2005,07,21,00,53,13.20
2005,07,21,00,54,13.20
2005,07,21,00,55,13.20
2005,07,21,00,56,13.20
2005,07,21,00,57,13.20
2005,07,21,00,58,13.20
2005,07,21,00,59,13.30
2005,07,21,01,00,13.30
2005,07,21,01,01,13.40
2005,07,21,01,02,13.50
2005,07,21,01,03,13.60
2005,07,21,01,04,13.60
2005,07,21,01,05,13.70
2005,07,21,01,06,13.70
2005,07,21,01,07,13.70
2005,07,21,01,08,13.70
2005,07,21,01,09,13.70
2005,07,21,01,10,13.70
2005,07,21,01,11,13.70
2005,07,21,01,12,13.70
2005,07,21,01,13,13.60
2005,07,21,01,14,13.60
2005,07,21,01,15,13.50
2005,07,21,01,16,13.50
2005,07,21,01,17,13.40
2005,07,21,01,18,13.40
2005,07,21,01,19,13.30
2005,07,21,01,20,13.30
2005,07,21,01,21,13.30
2005,07,21,01,22,13.30
2005,07,21,01,23,13.30
2005,07,21,01,24,13.30
2005,07,21,01,25,13.30
2005,07,21,01,26,13.30
2005,07,21,01,27,13.30
2005,07,21,01,28,13.30
2005,07,21,01,29,13.30
2005,07,21,01,30,13.30
2005,07,21,01,31,13.30
2005,07,21,01,32,13.30
2005,07,21,01,33,13.30
2005,07,21,01,34,13.30
2005,07,21,01,35,13.30
2005,07,21,01,36,13.30
2005,07,21,01,37,13.30
2005,07,21,01,38,13.30
2005,07,21,01,39,13.30
2005,07,21,01,40,13.20
2005,07,21,01,41,13.20
2005,07,21,01,42,13.20
2005,07,21,01,43,13.20
2005,07,21,01,44,13.10
2005,07,21,01,45,13.10
2005,07,21,01,46,13.10
2005,07,21,01,47,13.10
2005,07,21,01,48,13.10
2005,07,21,01,49,13.10
2005,07,21,01,50,13.00
2005,07,21,01,51,13.00
2005,07,21,01,52,13.10
2005,07,21,01,53,13.10
2005,07,21,01,54,13.10
2005,07,21,01,55,13.10
2005,07,21,01,56,13.10
2005,07,21,01,57,13.10
2005,07,21,01,58,13.10
2005,07,21,01,59,13.10
2005,07,21,02,00,13.10
2005,07,21,02,01,13.10
2005,07,21,02,02,13.10
2005,07,21,02,03,13.10
2005,07,21,02,04,13.10
2005,07,21,02,05,13.10
2005,07,21,02,06,13.10
2005,07,21,02,07,13.10
2005,07,21,02,08,13.00
2005,07,21,02,09,13.00
2005,07,21,02,10,13.00
2005,07,21,02,11,13.00
2005,07,21,02,12,13.00
2005,07,21,02,13,13.00
2005,07,21,02,14,13.00
2005,07,21,02,15,12.90
2005,07,21,02,16,12.90
2005,07,21,02,17,12.90
2005,07,21,02,18,12.80
2005,07,21,02,19,12.80
2005,07,21,02,20,12.80
2005,07,21,02,21,12.70
2005,07,21,02,22,12.60
2005,07,21,02,23,12.60
2005,07,21,02,24,12.60
2005,07,21,02,25,12.50
2005,07,21,02,26,12.50
2005,07,21,02,27,12.50
2005,07,21,02,28,12.50
2005,07,21,02,29,12.40
2005,07,21,02,30,12.40
2005,07,21,02,31,12.40
2005,07,21,02,32,12.30
2005,07,21,02,33,12.30
2005,07,21,02,34,12.30
2005,07,21,02,35,12.30
2005,07,21,02,36,12.30
2005,07,21,02,37,12.30
2005,07,21,02,38,12.20
2005,07,21,02,39,12.20
2005,07,21,02,40,12.20
2005,07,21,02,41,12.20
2005,07,21,02,42,12.20
2005,07,21,02,43,12.10
2005,07,21,02,44,12.10
2005,07,21,02,45,12.10
2005,07,21,02,46,12.10
2005,07,21,02,47,12.10
2005,07,21,02,48,12.10
2005,07,21,02,49,12.00
2005,07,21,02,50,12.00
2005,07,21,02,51,12.00
2005,07,21,02,52,12.00
2005,07,21,02,53,11.90
2005,07,21,02,54,11.90
2005,07,21,02,55,11.90
2005,07,21,02,56,11.90
2005,07,21,02,57,11.90
2005,07,21,02,58,11.90
2005,07,21,02,59,11.80
2005,07,21,03,00,11.80
2005,07,21,03,01,11.80
2005,07,21,03,02,11.80
2005,07,21,03,03,11.80
2005,07,21,03,04,11.80
2005,07,21,03,05,11.80
2005,07,21,03,06,11.80
2005,07,21,03,07,11.80
2005,07,21,03,08,11.80
2005,07,21,03,09,11.80
2005,07,21,03,10,11.80
2005,07,21,03,11,11.80
2005,07,21,03,12,11.80
2005,07,21,03,13,11.80
2005,07,21,03,14,11.80
2005,07,21,03,15,11.80
2005,07,21,03,16,11.80
2005,07,21,03,17,11.80
2005,07,21,03,18,11.70
2005,07,21,03,19,11.70
2005,07,21,03,20,11.70
2005,07,21,03,21,11.70
2005,07,21,03,22,11.70
2005,07,21,03,23,11.70
2005,07,21,03,24,11.70
2005,07,21,03,25,11.70
2005,07,21,03,26,11.70
2005,07,21,03,27,11.70
2005,07,21,03,28,11.70
2005,07,21,03,29,11.70
2005,07,21,03,30,11.70
2005,07,21,03,31,11.70
2005,07,21,03,32,11.70
2005,07,21,03,33,11.70
2005,07,21,03,34,11.70
2005,07,21,03,35,11.70
2005,07,21,03,36,11.70
2005,07,21,03,37,11.70
2005,07,21,03,38,11.70
2005,07,21,03,39,11.60
2005,07,21,03,40,11.60
2005,07,21,03,41,11.60
2005,07,21,03,42,11.60
2005,07,21,03,43,11.60
2005,07,21,03,44,11.60
2005,07,21,03,45,11.60
2005,07,21,03,46,11.60
2005,07,21,03,47,11.50
2005,07,21,03,48,11.50
2005,07,21,03,49,11.60
2005,07,21,03,50,11.60
2005,07,21,03,51,11.60
2005,07,21,03,52,11.60
2005,07,21,03,53,11.60
2005,07,21,03,54,11.60
2005,07,21,03,55,11.60
2005,07,21,03,56,11.60
2005,07,21,03,57,11.60
2005,07,21,03,58,11.60
2005,07,21,03,59,11.60
2005,07,21,04,00,11.60
2005,07,21,04,01,11.60
2005,07,21,04,02,11.60
2005,07,21,04,03,11.60
2005,07,21,04,04,11.60
2005,07,21,04,05,11.60
2005,07,21,04,06,11.60
2005,07,21,04,07,11.60
2005,07,21,04,08,11.50
2005,07,21,04,09,11.40
2005,07,21,04,10,11.40
2005,07,21,04,11,11.40
2005,07,21,04,12,11.40
2005,07,21,04,13,11.40
2005,07,21,04,14,11.30
2005,07,21,04,15,11.30
2005,07,21,04,16,11.20
2005,07,21,04,17,11.20
2005,07,21,04,18,11.10
2005,07,21,04,19,11.10
2005,07,21,04,20,11.10
2005,07,21,04,21,11.20
2005,07,21,04,22,11.20
2005,07,21,04,23,11.20
2005,07,21,04,24,11.20
2005,07,21,04,25,11.20
2005,07,21,04,26,11.20
2005,07,21,04,27,11.20
2005,07,21,04,28,11.20
2005,07,21,04,29,11.20
2005,07,21,04,30,11.20
2005,07,21,04,31,11.10
2005,07,21,04,32,11.10
2005,07,21,04,33,11.10
2005,07,21,04,34,11.10
2005,07,21,04,35,11.10
2005,07,21,04,36,11.10
2005,07,21,04,37,11.10
2005,07,21,04,38,11.10
2005,07,21,04,39,11.10
2005,07,21,04,40,11.10
2005,07,21,04,41,11.10
2005,07,21,04,42,11.10
2005,07,21,04,43,11.10
2005,07,21,04,44,11.10
2005,07,21,04,45,11.10
2005,07,21,04,46,11.10
2005,07,21,04,47,11.10
2005,07,21,04,48,11.10
2005,07,21,04,49,11.10
2005,07,21,04,50,11.00
2005,07,21,04,51,10.90
2005,07,21,04,52,10.90
2005,07,21,04,53,10.90
2005,07,21,04,54,10.90
2005,07,21,04,55,10.80
2005,07,21,04,56,10.80
2005,07,21,04,57,10.80
2005,07,21,04,58,10.70
2005,07,21,04,59,10.70
2005,07,21,05,00,10.70
2005,07,21,05,01,10.70
2005,07,21,05,02,10.60
2005,07,21,05,03,10.60
2005,07,21,05,04,10.60
2005,07,21,05,05,10.60
2005,07,21,05,06,10.60
2005,07,21,05,07,10.60
2005,07,21,05,08,10.60
2005,07,21,05,09,10.60
2005,07,21,05,10,10.60
2005,07,21,05,11,10.60
2005,07,21,05,12,10.60
2005,07,21,05,13,10.60
2005,07,21,05,14,10.70
2005,07,21,05,15,10.70
2005,07,21,05,16,10.70
2005,07,21,05,17,10.70
2005,07,21,05,18,10.80
2005,07,21,05,19,10.80
2005,07,21,05,20,10.80
2005,07,21,05,21,10.80
2005,07,21,05,22,10.80
2005,07,21,05,23,10.80
2005,07,21,05,24,10.80
2005,07,21,05,25,10.80
2005,07,21,05,26,10.80
2005,07,21,05,27,10.70
2005,07,21,05,28,10.70
2005,07,21,05,29,10.70
2005,07,21,05,30,10.70
2005,07,21,05,31,10.70
2005,07,21,05,32,10.70
2005,07,21,05,33,10.70
2005,07,21,05,34,10.80
2005,07,21,05,35,10.80
2005,07,21,05,36,10.80
2005,07,21,05,37,10.70
2005,07,21,05,38,10.70
2005,07,21,05,39,10.70
2005,07,21,05,40,10.70
2005,07,21,05,41,10.70
2005,07,21,05,42,10.70
2005,07,21,05,43,10.70
2005,07,21,05,44,10.70
2005,07,21,05,45,10.70
2005,07,21,05,46,10.70
2005,07,21,05,47,10.70
2005,07,21,05,48,10.70
2005,07,21,05,49,10.80
2005,07,21,05,50,10.80
2005,07,21,05,51,10.90
2005,07,21,05,52,10.90
2005,07,21,05,53,10.90
2005,07,21,05,54,10.90
2005,07,21,05,55,10.90
2005,07,21,05,56,10.90
2005,07,21,05,57,10.90
2005,07,21,05,58,10.90
2005,07,21,05,59,10.90
2005,07,21,06,00,10.90
2005,07,21,06,01,10.90
2005,07,21,06,02,10.90
2005,07,21,06,03,11.10
2005,07,21,06,04,11.10
2005,07,21,06,05,11.10
2005,07,21,06,06,11.10
2005,07,21,06,07,11.10
2005,07,21,06,08,11.10
2005,07,21,06,09,11.20
2005,07,21,06,10,11.20
2005,07,21,06,11,11.20
2005,07,21,06,12,11.30
2005,07,21,06,13,11.30
2005,07,21,06,14,11.30
2005,07,21,06,15,11.40
2005,07,21,06,16,11.40
2005,07,21,06,17,11.40
2005,07,21,06,18,11.40
2005,07,21,06,19,11.50
2005,07,21,06,20,11.60
2005,07,21,06,21,11.60
2005,07,21,06,22,11.60
2005,07,21,06,23,11.60
2005,07,21,06,24,11.60
2005,07,21,06,25,11.70
2005,07,21,06,26,11.70
2005,07,21,06,27,11.80
2005,07,21,06,28,11.80
2005,07,21,06,29,11.80
2005,07,21,06,30,11.80
2005,07,21,06,31,11.80
2005,07,21,06,32,11.90
2005,07,21,06,33,11.90
2005,07,21,06,34,11.90
2005,07,21,06,35,12.00
2005,07,21,06,36,12.00
2005,07,21,06,37,12.00
2005,07,21,06,38,12.10
2005,07,21,06,39,12.10
2005,07,21,06,40,12.20
2005,07,21,06,41,12.20
2005,07,21,06,42,12.30
2005,07,21,06,43,12.30
2005,07,21,06,44,12.30
2005,07,21,06,45,12.40
2005,07,21,06,46,12.50
2005,07,21,06,47,12.50
2005,07,21,06,48,12.60
2005,07,21,06,49,12.60
2005,07,21,06,50,12.70
2005,07,21,06,51,12.70
2005,07,21,06,52,12.80
2005,07,21,06,53,12.80
2005,07,21,06,54,12.80
2005,07,21,06,55,12.90
2005,07,21,06,56,13.00
2005,07,21,06,57,13.00
2005,07,21,06,58,13.10
2005,07,21,06,59,13.10
2005,07,21,07,00,13.20
2005,07,21,07,01,13.20
2005,07,21,07,02,13.30
2005,07,21,07,03,13.30
2005,07,21,07,04,13.40
2005,07,21,07,05,13.50
2005,07,21,07,06,13.50
2005,07,21,07,07,13.50
2005,07,21,07,08,13.60
2005,07,21,07,09,13.70
2005,07,21,07,10,13.70
2005,07,21,07,11,13.70
2005,07,21,07,12,13.80
2005,07,21,07,13,13.80
2005,07,21,07,14,13.80
2005,07,21,07,15,13.90
2005,07,21,07,16,13.90
2005,07,21,07,17,14.00
2005,07,21,07,18,14.00
2005,07,21,07,19,14.10
2005,07,21,07,20,14.10
2005,07,21,07,21,14.20
2005,07,21,07,22,14.20
2005,07,21,07,23,14.20
2005,07,21,07,24,14.30
2005,07,21,07,25,14.40
2005,07,21,07,26,14.50
2005,07,21,07,27,14.50
2005,07,21,07,28,14.60
2005,07,21,07,29,14.60
2005,07,21,07,30,14.70
2005,07,21,07,31,14.80
2005,07,21,07,32,14.80
2005,07,21,07,33,14.90
2005,07,21,07,34,14.90
2005,07,21,07,35,15.00
2005,07,21,07,36,15.00
2005,07,21,07,37,15.10
2005,07,21,07,38,15.20
2005,07,21,07,39,15.20
2005,07,21,07,40,15.30
2005,07,21,07,41,15.30
2005,07,21,07,42,15.30
2005,07,21,07,43,15.40
2005,07,21,07,44,15.40
2005,07,21,07,45,15.50
2005,07,21,07,46,15.50
2005,07,21,07,47,15.60
2005,07,21,07,48,15.60
2005,07,21,07,49,15.70
2005,07,21,07,50,15.80
2005,07,21,07,51,15.80
2005,07,21,07,52,15.90
2005,07,21,07,53,16.00
2005,07,21,07,54,16.10
2005,07,21,07,55,16.10
2005,07,21,07,56,16.20
2005,07,21,07,57,16.30
2005,07,21,07,58,16.40
2005,07,21,07,59,16.40
2005,07,21,08,00,16.50
2005,07,21,08,01,16.70
2005,07,21,08,02,16.80
2005,07,21,08,03,16.90
2005,07,21,08,04,17.00
2005,07,21,08,05,17.10
2005,07,21,08,06,17.20
2005,07,21,08,07,17.30
2005,07,21,08,08,17.30
2005,07,21,08,09,17.30
2005,07,21,08,10,17.30
2005,07,21,08,11,17.30
2005,07,21,08,12,17.40
2005,07,21,08,13,17.50
2005,07,21,08,14,17.50
2005,07,21,08,15,17.60
2005,07,21,08,16,17.60
2005,07,21,08,17,17.70
2005,07,21,08,18,17.70
2005,07,21,08,19,17.80
2005,07,21,08,20,17.90
2005,07,21,08,21,17.90
2005,07,21,08,22,17.90
2005,07,21,08,23,17.90
2005,07,21,08,24,17.80
2005,07,21,08,25,17.70
2005,07,21,08,26,17.70
2005,07,21,08,27,17.70
2005,07,21,08,28,17.50
2005,07,21,08,29,17.50
2005,07,21,08,30,17.60
2005,07,21,08,31,17.60
2005,07,21,08,32,17.60
2005,07,21,08,33,17.70
2005,07,21,08,34,17.70
2005,07,21,08,35,17.60
2005,07,21,08,36,17.60
2005,07,21,08,37,17.60
2005,07,21,08,38,17.60
2005,07,21,08,39,17.60
2005,07,21,08,40,17.80
2005,07,21,08,41,17.90
2005,07,21,08,42,18.00
2005,07,21,08,43,18.10
2005,07,21,08,44,18.20
2005,07,21,08,45,18.20
2005,07,21,08,46,18.20
2005,07,21,08,47,18.20
2005,07,21,08,48,18.20
2005,07,21,08,49,18.30
2005,07,21,08,50,18.30
2005,07,21,08,51,18.40
2005,07,21,08,52,18.40
2005,07,21,08,53,18.30
2005,07,21,08,54,18.30
2005,07,21,08,55,18.30
2005,07,21,08,56,18.30
2005,07,21,08,57,18.30
2005,07,21,08,58,18.40
2005,07,21,08,59,18.50
2005,07,21,09,00,18.50
2005,07,21,09,01,18.70
2005,07,21,09,02,18.70
2005,07,21,09,03,18.80
2005,07,21,09,04,18.80
2005,07,21,09,05,18.80
2005,07,21,09,06,18.80
2005,07,21,09,07,18.80
2005,07,21,09,08,18.80
2005,07,21,09,09,18.80
2005,07,21,09,10,18.90
2005,07,21,09,11,18.90
2005,07,21,09,12,18.90
2005,07,21,09,13,18.80
2005,07,21,09,14,18.80
2005,07,21,09,15,18.70
2005,07,21,09,16,18.70
2005,07,21,09,17,18.70
2005,07,21,09,18,18.70
2005,07,21,09,19,18.70
2005,07,21,09,20,18.70
2005,07,21,09,21,18.90
2005,07,21,09,22,18.90
2005,07,21,09,23,19.00
2005,07,21,09,24,18.90
2005,07,21,09,25,18.90
2005,07,21,09,26,18.90
2005,07,21,09,27,18.90
2005,07,21,09,28,18.90
2005,07,21,09,29,18.90
2005,07,21,09,30,18.90
2005,07,21,09,31,18.90
2005,07,21,09,32,19.00
2005,07,21,09,33,19.10
2005,07,21,09,34,19.10
2005,07,21,09,35,19.20
2005,07,21,09,36,19.30
2005,07,21,09,37,19.30
2005,07,21,09,38,19.40
2005,07,21,09,39,19.40
2005,07,21,09,40,19.30
2005,07,21,09,41,19.30
2005,07,21,09,42,19.40
2005,07,21,09,43,19.40
2005,07,21,09,44,19.50
2005,07,21,09,45,19.60
2005,07,21,09,46,19.60
2005,07,21,09,47,19.60
2005,07,21,09,48,19.50
2005,07,21,09,49,19.50
2005,07,21,09,50,19.60
2005,07,21,09,51,19.70
2005,07,21,09,52,19.70
2005,07,21,09,53,19.70
2005,07,21,09,54,19.80
2005,07,21,09,55,19.90
2005,07,21,09,56,19.90
2005,07,21,09,57,19.90
2005,07,21,09,58,19.90
2005,07,21,09,59,19.90
2005,07,21,10,00,19.90
2005,07,21,10,01,20.00
2005,07,21,10,02,19.90
2005,07,21,10,03,20.00
2005,07,21,10,04,20.10
2005,07,21,10,05,20.20
2005,07,21,10,06,20.20
2005,07,21,10,07,20.20
2005,07,21,10,08,20.30
2005,07,21,10,09,20.30
2005,07,21,10,10,20.20
2005,07,21,10,11,20.20
2005,07,21,10,12,20.20
2005,07,21,10,13,20.10
2005,07,21,10,14,20.00
2005,07,21,10,15,19.90
2005,07,21,10,16,19.90
2005,07,21,10,17,19.90
2005,07,21,10,18,19.90
2005,07,21,10,19,19.90
2005,07,21,10,20,19.90
2005,07,21,10,21,20.00
2005,07,21,10,22,20.10
2005,07,21,10,23,20.20
2005,07,21,10,24,20.20
2005,07,21,10,25,20.20
2005,07,21,10,26,20.20
2005,07,21,10,27,20.20
2005,07,21,10,28,20.20
2005,07,21,10,29,20.20
2005,07,21,10,30,20.20
2005,07,21,10,31,20.20
2005,07,21,10,32,20.20
2005,07,21,10,33,20.20
2005,07,21,10,34,20.30
2005,07,21,10,35,20.40
2005,07,21,10,36,20.50
2005,07,21,10,37,20.50
2005,07,21,10,38,20.60
2005,07,21,10,39,20.70
2005,07,21,10,40,20.80
2005,07,21,10,41,20.90
2005,07,21,10,42,21.00
2005,07,21,10,43,21.00
2005,07,21,10,44,20.80
2005,07,21,10,45,20.80
2005,07,21,10,46,20.70
2005,07,21,10,47,20.60
2005,07,21,10,48,20.70
2005,07,21,10,49,20.70
2005,07,21,10,50,20.70
2005,07,21,10,51,20.80
2005,07,21,10,52,20.80
2005,07,21,10,53,20.90
2005,07,21,10,54,20.70
2005,07,21,10,55,20.60
2005,07,21,10,56,20.60
2005,07,21,10,57,20.60
2005,07,21,10,58,20.60
2005,07,21,10,59,20.60
2005,07,21,11,00,20.70
2005,07,21,11,01,20.60
2005,07,21,11,02,20.50
2005,07,21,11,03,20.40
2005,07,21,11,04,20.40
2005,07,21,11,05,20.30
2005,07,21,11,06,20.30
2005,07,21,11,07,20.40
2005,07,21,11,08,20.40
2005,07,21,11,09,20.50
2005,07,21,11,10,20.60
2005,07,21,11,11,20.70
2005,07,21,11,12,20.80
2005,07,21,11,13,20.90
2005,07,21,11,14,21.20
2005,07,21,11,15,21.30
2005,07,21,11,16,21.30
2005,07,21,11,17,21.40
2005,07,21,11,18,21.30
2005,07,21,11,19,21.10
2005,07,21,11,20,21.00
2005,07,21,11,21,20.90
2005,07,21,11,22,20.80
2005,07,21,11,23,20.80
2005,07,21,11,24,20.80
2005,07,21,11,25,20.90
2005,07,21,11,26,20.90
2005,07,21,11,27,21.00
2005,07,21,11,28,21.00
2005,07,21,11,29,21.10
2005,07,21,11,30,21.00
2005,07,21,11,31,21.00
2005,07,21,11,32,21.00
2005,07,21,11,33,21.00
2005,07,21,11,34,21.10
2005,07,21,11,35,21.30
2005,07,21,11,36,21.30
2005,07,21,11,37,21.30
2005,07,21,11,38,21.20
2005,07,21,11,39,21.10
2005,07,21,11,40,21.10
2005,07,21,11,41,21.10
2005,07,21,11,42,21.10
2005,07,21,11,43,21.10
2005,07,21,11,44,21.20
2005,07,21,11,45,21.20
2005,07,21,11,46,21.20
2005,07,21,11,47,21.20
2005,07,21,11,48,21.30
2005,07,21,11,49,21.40
2005,07,21,11,50,21.50
2005,07,21,11,51,21.40
2005,07,21,11,52,21.50
2005,07,21,11,53,21.60
2005,07,21,11,54,21.60
2005,07,21,11,55,21.60
2005,07,21,11,56,21.60
2005,07,21,11,57,21.60
2005,07,21,11,58,21.60
2005,07,21,11,59,21.60
2005,07,21,12,00,21.60
2005,07,21,12,01,21.60
2005,07,21,12,02,21.80
2005,07,21,12,03,21.80
2005,07,21,12,04,21.80
2005,07,21,12,05,21.80
2005,07,21,12,06,21.80
2005,07,21,12,07,21.80
2005,07,21,12,08,21.70
2005,07,21,12,09,21.70
2005,07,21,12,10,21.90
2005,07,21,12,11,22.00
2005,07,21,12,12,22.00
2005,07,21,12,13,21.90
2005,07,21,12,14,21.80
2005,07,21,12,15,21.80
2005,07,21,12,16,21.90
2005,07,21,12,17,21.90
2005,07,21,12,18,21.90
2005,07,21,12,19,21.90
2005,07,21,12,20,21.80
2005,07,21,12,21,21.80
2005,07,21,12,22,21.80
2005,07,21,12,23,21.90
2005,07,21,12,24,22.00
2005,07,21,12,25,22.00
2005,07,21,12,26,22.00
2005,07,21,12,27,22.00
2005,07,21,12,28,22.00
2005,07,21,12,29,22.10
2005,07,21,12,30,22.10
2005,07,21,12,31,22.10
2005,07,21,12,32,22.10
2005,07,21,12,33,22.00
2005,07,21,12,34,22.10
2005,07,21,12,35,22.10
2005,07,21,12,36,22.10
2005,07,21,12,37,22.10
2005,07,21,12,38,22.00
2005,07,21,12,39,22.00
2005,07,21,12,40,22.10
2005,07,21,12,41,22.20
2005,07,21,12,42,22.20
2005,07,21,12,43,22.30
2005,07,21,12,44,22.50
2005,07,21,12,45,22.60
2005,07,21,12,46,22.70
2005,07,21,12,47,22.90
2005,07,21,12,48,23.00
2005,07,21,12,49,23.10
2005,07,21,12,50,23.30
2005,07,21,12,51,23.20
2005,07,21,12,52,23.10
2005,07,21,12,53,22.90
2005,07,21,12,54,22.80
2005,07,21,12,55,22.70
2005,07,21,12,56,22.70
2005,07,21,12,57,22.70
2005,07,21,12,58,22.60
2005,07,21,12,59,22.60
2005,07,21,13,00,22.70
2005,07,21,13,01,22.90
2005,07,21,13,02,23.00
2005,07,21,13,03,23.20
2005,07,21,13,04,23.20
2005,07,21,13,05,23.20
2005,07,21,13,06,23.10
2005,07,21,13,07,23.10
2005,07,21,13,08,22.90
2005,07,21,13,09,22.60
2005,07,21,13,10,22.40
2005,07,21,13,11,22.30
2005,07,21,13,12,22.10
2005,07,21,13,13,21.90
2005,07,21,13,14,21.80
2005,07,21,13,15,21.70
2005,07,21,13,16,21.60
2005,07,21,13,17,21.60
2005,07,21,13,18,21.60
2005,07,21,13,19,21.60
2005,07,21,13,20,21.60
2005,07,21,13,21,21.60
2005,07,21,13,22,21.60
2005,07,21,13,23,21.40
2005,07,21,13,24,21.40
2005,07,21,13,25,21.30
2005,07,21,13,26,21.30
2005,07,21,13,27,21.30
2005,07,21,13,28,21.30
2005,07,21,13,29,21.30
2005,07,21,13,30,21.30
2005,07,21,13,31,21.30
2005,07,21,13,32,21.30
2005,07,21,13,33,21.30
2005,07,21,13,34,21.40
2005,07,21,13,35,21.40
2005,07,21,13,36,21.40
2005,07,21,13,37,21.30
2005,07,21,13,38,21.30
2005,07,21,13,39,21.40
2005,07,21,13,40,21.30
2005,07,21,13,41,21.30
2005,07,21,13,42,21.40
2005,07,21,13,43,21.60
2005,07,21,13,44,21.70
2005,07,21,13,45,21.80
2005,07,21,13,46,21.80
2005,07,21,13,47,21.70
2005,07,21,13,48,21.70
2005,07,21,13,49,21.60
2005,07,21,13,50,21.60
2005,07,21,13,51,21.40
2005,07,21,13,52,21.40
2005,07,21,13,53,21.40
2005,07,21,13,54,21.50
2005,07,21,13,55,21.60
2005,07,21,13,56,21.60
2005,07,21,13,57,21.70
2005,07,21,13,58,21.70
2005,07,21,13,59,21.90
2005,07,21,14,00,22.00
2005,07,21,14,01,22.10
2005,07,21,14,02,22.10
2005,07,21,14,03,22.00
2005,07,21,14,04,22.00
2005,07,21,14,05,22.00
2005,07,21,14,06,22.10
2005,07,21,14,07,22.10
2005,07,21,14,08,22.20
2005,07,21,14,09,22.30
2005,07,21,14,10,22.30
2005,07,21,14,11,22.30
2005,07,21,14,12,22.30
2005,07,21,14,13,22.40
2005,07,21,14,14,22.30
2005,07,21,14,15,22.20
2005,07,21,14,16,22.10
2005,07,21,14,17,22.20
2005,07,21,14,18,22.30
2005,07,21,14,19,22.30
2005,07,21,14,20,22.40
2005,07,21,14,21,22.50
2005,07,21,14,22,22.60
2005,07,21,14,23,22.70
2005,07,21,14,24,22.70
2005,07,21,14,25,22.70
2005,07,21,14,26,22.60
2005,07,21,14,27,22.50
2005,07,21,14,28,22.40
2005,07,21,14,29,22.30
2005,07,21,14,30,22.30
2005,07,21,14,31,22.40
2005,07,21,14,32,22.30
2005,07,21,14,33,22.30
2005,07,21,14,34,22.30
2005,07,21,14,35,22.40
2005,07,21,14,36,22.50
2005,07,21,14,37,22.50
2005,07,21,14,38,22.50
2005,07,21,14,39,22.40
2005,07,21,14,40,22.50
2005,07,21,14,41,22.60
2005,07,21,14,42,22.70
2005,07,21,14,43,22.80
2005,07,21,14,44,22.90
2005,07,21,14,45,23.10
2005,07,21,14,46,23.30
2005,07,21,14,47,23.40
2005,07,21,14,48,23.40
2005,07,21,14,49,23.40
2005,07,21,14,50,23.50
2005,07,21,14,51,23.50
2005,07,21,14,52,23.60
2005,07,21,14,53,23.60
2005,07,21,14,54,23.60
2005,07,21,14,55,23.70
2005,07,21,14,56,23.70
2005,07,21,14,57,23.70
2005,07,21,14,58,23.50
2005,07,21,14,59,23.40
2005,07,21,15,00,23.40
2005,07,21,15,01,23.50
2005,07,21,15,02,23.50
2005,07,21,15,03,23.50
2005,07,21,15,04,23.60
2005,07,21,15,05,23.70
2005,07,21,15,06,23.70
2005,07,21,15,07,23.70
2005,07,21,15,08,23.70
2005,07,21,15,09,23.50
2005,07,21,15,10,23.40
2005,07,21,15,11,23.40
2005,07,21,15,12,23.40
2005,07,21,15,13,23.50
2005,07,21,15,14,23.60
2005,07,21,15,15,23.60
2005,07,21,15,16,23.70
2005,07,21,15,17,23.70
2005,07,21,15,18,23.70
2005,07,21,15,19,23.70
2005,07,21,15,20,23.70
2005,07,21,15,21,23.70
2005,07,21,15,22,23.70
2005,07,21,15,23,23.70
2005,07,21,15,24,23.70
2005,07,21,15,25,23.70
2005,07,21,15,26,23.80
2005,07,21,15,27,23.80
2005,07,21,15,28,23.80
2005,07,21,15,29,23.70
2005,07,21,15,30,23.70
2005,07,21,15,31,23.70
2005,07,21,15,32,23.70
2005,07,21,15,33,23.70
2005,07,21,15,34,23.70
2005,07,21,15,35,23.90
2005,07,21,15,36,24.00
2005,07,21,15,37,23.90
2005,07,21,15,38,23.90
2005,07,21,15,39,23.90
2005,07,21,15,40,23.90
2005,07,21,15,41,24.10
2005,07,21,15,42,24.10
2005,07,21,15,43,24.20
2005,07,21,15,44,24.20
2005,07,21,15,45,24.30
2005,07,21,15,46,24.40
2005,07,21,15,47,24.40
2005,07,21,15,48,24.40
2005,07,21,15,49,24.50
2005,07,21,15,50,24.50
2005,07,21,15,51,24.40
2005,07,21,15,52,24.20
2005,07,21,15,53,24.10
2005,07,21,15,54,24.10
2005,07,21,15,55,24.10
2005,07,21,15,56,24.40
2005,07,21,15,57,24.40
2005,07,21,15,58,24.40
2005,07,21,15,59,24.50
2005,07,21,16,00,24.60
2005,07,21,16,01,24.50
2005,07,21,16,02,24.60
2005,07,21,16,03,24.70
2005,07,21,16,04,24.80
2005,07,21,16,05,24.90
2005,07,21,16,06,24.90
2005,07,21,16,07,25.00
2005,07,21,16,08,24.90
2005,07,21,16,09,25.00
2005,07,21,16,10,25.10
2005,07,21,16,11,25.10
2005,07,21,16,12,25.00
2005,07,21,16,13,25.00
2005,07,21,16,14,24.90
2005,07,21,16,15,24.80
2005,07,21,16,16,24.80
2005,07,21,16,17,24.70
2005,07,21,16,18,24.70
2005,07,21,16,19,24.80
2005,07,21,16,20,25.00
2005,07,21,16,21,25.20
2005,07,21,16,22,25.40
2005,07,21,16,23,25.60
2005,07,21,16,24,25.70
2005,07,21,16,25,25.90
2005,07,21,16,26,26.00
2005,07,21,16,27,25.90
2005,07,21,16,28,25.90
2005,07,21,16,29,25.70
2005,07,21,16,30,25.50
2005,07,21,16,31,25.30
2005,07,21,16,32,25.30
2005,07,21,16,33,25.20
2005,07,21,16,34,25.30
2005,07,21,16,35,25.30
2005,07,21,16,36,25.30
2005,07,21,16,37,25.40
2005,07,21,16,38,25.40
2005,07,21,16,39,25.60
2005,07,21,16,40,25.70
2005,07,21,16,41,25.70
2005,07,21,16,42,25.60
2005,07,21,16,43,25.50
2005,07,21,16,44,25.40
2005,07,21,16,45,25.20
2005,07,21,16,46,25.10
2005,07,21,16,47,24.90
2005,07,21,16,48,24.80
2005,07,21,16,49,24.80
2005,07,21,16,50,24.70
2005,07,21,16,51,24.60
2005,07,21,16,52,24.60
2005,07,21,16,53,24.70
2005,07,21,16,54,24.90
2005,07,21,16,55,25.00
2005,07,21,16,56,25.20
2005,07,21,16,57,25.40
2005,07,21,16,58,25.50
2005,07,21,16,59,25.60
2005,07,21,17,00,25.60
2005,07,21,17,01,25.50
2005,07,21,17,02,25.50
2005,07,21,17,03,25.50
2005,07,21,17,04,25.60
2005,07,21,17,05,25.60
2005,07,21,17,06,25.60
2005,07,21,17,07,25.60
2005,07,21,17,08,25.60
2005,07,21,17,09,25.60
2005,07,21,17,10,25.70
2005,07,21,17,11,25.70
2005,07,21,17,12,25.40
2005,07,21,17,13,25.30
2005,07,21,17,14,25.30
2005,07,21,17,15,25.30
2005,07,21,17,16,25.20
2005,07,21,17,17,25.30
2005,07,21,17,18,25.30
2005,07,21,17,19,25.30